Blue Canyon, CA

10:35 PM PDT on July 24, 2017 (GMT -0700)
Blue Canyon-Nyack

Weather History for KBLU - March, 2013

Change the Weather History Date:

Wednesday, March 27, 2013

  Actual Average Record
Temperature  
Mean Temperature 45 °F -  
Max Temperature 53 °F 48 °F 66 °F (1978)
Min Temperature 39 °F 33 °F 19 °F (1975)
Degree Days  
Heating Degree Days 20    
Moisture  
Dew Point 38 °F    
Average Humidity 82    
Maximum Humidity 100    
Minimum Humidity 56    
Precipitation  
Precipitation 0.00 in - - ()
Sea Level Pressure  
Sea Level Pressure 29.99 in    
Wind  
Wind Speed 3 mph (South)    
Max Wind Speed 18 mph    
Max Gust Speed 24 mph    
Visibility 7 miles    
Events Fog    
Averages and records for this station are not official NWS values.
T = Trace of Precipitation, MM = Missing Value Source: NWS Daily Summary

Daily Weather History Graph

Daily Weather History Graph

Search for Another Location

Airport or City:

Trip Planner

Search our weather history database for the weather conditions in past years. The results will help you decide how hot, cold, wet, or windy it might be!

Date:

Astronomy

Mar. 27, 2013 Rise Set
Actual Time 6:54 AM PDT 7:22 PM PDT
Civil Twilight 6:27 AM PDT 7:49 PM PDT
Nautical Twilight 5:56 AM PDT 8:20 PM PDT
Astronomical Twilight 5:23 AM PDT 8:53 PM PDT
Moon 8:11 PM PDT (3/27) 6:49 AM PDT (3/27)
Length of Visible Light 13h 21m
Length of Day
12h 27m
Full, 100% of the Moon is Illuminated
Mar 27
Full
Apr 2
Last Quarter
Apr 10
New
Apr 18
First Quarter
Apr 25
Full

Hourly Weather History & Observations

Time (PDT) Temp. Windchill Dew Point Humidity Pressure Visibility Wind Dir Wind Speed Gust Speed Precip Events Conditions
12:52 AM 41.0 °F - 35.1 °F 79% 29.94 in 10.0 mi Calm Calm - N/A   Overcast
1:52 AM 39.9 °F - 34.0 °F 79% 29.94 in 10.0 mi Calm Calm - N/A   Mostly Cloudy
2:07 AM 39.2 °F - 33.8 °F 81% 30.00 in 10.0 mi Calm Calm - N/A   Scattered Clouds
2:52 AM 41.0 °F - 34.0 °F 76% 29.92 in 10.0 mi Calm Calm - N/A   Clear
3:52 AM 39.9 °F - 34.0 °F 79% 29.91 in 10.0 mi Calm Calm - N/A   Scattered Clouds
4:52 AM 41.0 °F - 34.0 °F 76% 29.90 in 10.0 mi Calm Calm - N/A   Scattered Clouds
5:52 AM 41.0 °F - 35.1 °F 79% 29.91 in 10.0 mi Calm Calm - N/A   Overcast
6:52 AM 41.0 °F 39.0 °F 35.1 °F 79% 29.91 in 10.0 mi SE 3.5 mph - N/A   Overcast
7:52 AM 42.1 °F 40.2 °F 35.1 °F 76% 29.93 in 10.0 mi SSE 3.5 mph - N/A   Overcast
8:52 AM 43.0 °F 41.3 °F 36.0 °F 76% 29.95 in 10.0 mi SE 3.5 mph - N/A   Overcast
9:52 AM 46.0 °F 43.9 °F 36.0 °F 68% 29.94 in 10.0 mi South 4.6 mph - N/A   Overcast
10:52 AM 46.9 °F - 36.0 °F 66% 29.95 in 10.0 mi South 10.4 mph - N/A   Mostly Cloudy
11:52 AM 46.9 °F - 37.0 °F 68% 29.95 in 10.0 mi South 9.2 mph - N/A   Mostly Cloudy
12:31 PM 48.2 °F - 37.4 °F 66% 30.03 in 10.0 mi SSW 9.2 mph 16.1 mph N/A   Overcast
12:39 PM 48.2 °F - 37.4 °F 66% 30.03 in 10.0 mi South 9.2 mph - N/A   Overcast
12:52 PM 50.0 °F - 37.0 °F 61% 29.94 in 10.0 mi SSW 9.2 mph 21.9 mph N/A   Scattered Clouds
1:52 PM 50.0 °F - 37.9 °F 63% 29.94 in 10.0 mi South 8.1 mph 18.4 mph N/A   Mostly Cloudy
2:52 PM 51.1 °F - 36.0 °F 56% 29.93 in 10.0 mi South 18.4 mph 24.2 mph N/A   Mostly Cloudy
3:52 PM 50.0 °F - 37.9 °F 63% 29.94 in 10.0 mi South 6.9 mph 16.1 mph N/A   Scattered Clouds
4:52 PM 50.0 °F - 37.0 °F 61% 29.93 in 10.0 mi SSW 11.5 mph - N/A   Scattered Clouds
5:52 PM 48.0 °F - 39.9 °F 74% 29.94 in 10.0 mi SSW 8.1 mph - N/A   Partly Cloudy
6:52 PM 46.0 °F 42.5 °F 41.0 °F 83% 29.96 in 10.0 mi South 6.9 mph - N/A   Scattered Clouds
7:03 PM 46.4 °F 42.4 °F 39.2 °F 76% 30.03 in 10.0 mi South 8.1 mph - N/A   Mostly Cloudy
7:14 PM 44.6 °F 41.4 °F 39.2 °F 81% 30.04 in 10.0 mi South 5.8 mph - N/A   Partly Cloudy
7:52 PM 44.1 °F 42.5 °F 41.0 °F 89% 29.97 in 10.0 mi South 3.5 mph - N/A   Scattered Clouds
8:01 PM 44.6 °F 43.1 °F 41.0 °F 87% 30.04 in 10.0 mi South 3.5 mph - N/A   Scattered Clouds
8:14 PM 42.8 °F - 41.0 °F 93% 30.04 in 10.0 mi Calm Calm - N/A   Mostly Cloudy
8:27 PM 42.8 °F - 42.8 °F 100% 30.04 in 10.0 mi Calm Calm - N/A   Overcast
8:52 PM 43.0 °F 41.3 °F 41.0 °F 93% 29.97 in 10.0 mi Variable 3.5 mph - N/A   Overcast
9:38 PM 42.8 °F - 41.0 °F 93% 30.05 in 1.8 mi Calm Calm - N/A   Overcast
9:41 PM 42.8 °F - 41.0 °F 93% 30.05 in 1.0 mi Calm Calm - N/A   Mist
9:48 PM 42.8 °F - 41.0 °F 93% 30.05 in 0.5 mi Calm Calm - N/A Fog Fog
9:52 PM 41.0 °F - 41.0 °F 100% 29.98 in 0.5 mi Calm Calm - N/A Fog Fog
9:58 PM 41.0 °F - 39.2 °F 93% 30.05 in 1.5 mi Calm Calm - N/A   Mostly Cloudy
10:05 PM 41.0 °F - 39.2 °F 93% 30.05 in 0.8 mi Calm Calm - N/A   Mist
10:14 PM 41.0 °F - 39.2 °F 93% 30.06 in 0.2 mi Calm Calm - N/A Fog Fog
10:34 PM 42.8 °F 41.1 °F 41.0 °F 93% 30.06 in 1.0 mi SSE 3.5 mph - N/A   Overcast
10:36 PM 42.8 °F 41.1 °F 41.0 °F 93% 30.06 in 2.5 mi SSE 3.5 mph - N/A   Overcast
10:43 PM 42.8 °F 41.1 °F 41.0 °F 93% 30.06 in 6.0 mi SE 3.5 mph - N/A   Overcast
10:52 PM 42.1 °F 40.2 °F 41.0 °F 96% 29.98 in 2.5 mi SSE 3.5 mph - N/A   Overcast
11:14 PM 42.8 °F - 41.0 °F 93% 30.06 in 1.2 mi Calm Calm - N/A   Overcast
11:24 PM 42.8 °F - 41.0 °F 93% 30.06 in 0.8 mi Calm Calm - N/A   Mist
11:32 PM 42.8 °F - 41.0 °F 93% 30.06 in 1.5 mi Calm Calm - N/A   Overcast
11:45 PM 41.0 °F - 41.0 °F 100% 30.06 in 3.0 mi Calm Calm - N/A   Overcast
11:52 PM 41.0 °F 39.0 °F 41.0 °F 100% 29.99 in 4.0 mi East 3.5 mph - N/A   Overcast